649  
ASUS41 KLWX 010611  
RWRLWX  
 
REGIONAL WEATHER ROUNDUP  
NATIONAL WEATHER SERVICE BALTIMORE MD/WASHINGTON DC  
200 AM EDT MON MAY 01 2017  
 
NOTE: "FAIR" INDICATES FEW OR NO CLOUDS BELOW 12,000 FEET  
WITH NO SIGNIFICANT WEATHER AND/OR S TO VISIBILITY
.  
TC=TEMPERATURE CELSIUS  
 
* =NON NWS SITE. STATION DOES NOT REPORT PRECIPITATION (E.G. RAIN,  
SNOW, ETC.), THUNDER, OR FOG.
 
 
DCZ001-MDZ009-015-VAZ040>042-051-053>054-010700-  
WASHINGTON METRO  
 
CITY SKY/WX TMP DP RH WIND PRES REMARKS
 
WASHINGTON NAT MOCLDY 66 63 90 NE8 30.01F  
DULLES PTCLDY 73 62 68 S8 29.98F  
ANDREWS AFB CLEAR 62 60 93 E5 30.00F  
FT BELVOIR CLEAR 66 63 88 CALM 29.99F  
QUANTICO CLEAR 72 69 90 S12 29.99F  
COLLEGE PARK* CLEAR 60 58 92 CALM 30.01F  
LEESBURG* CLEAR 68 64 88 SE5 29.99F  
MANASSAS* N/A 73 64 73 S7 29.98F  
 

 
 
MDZ006>007-011-014-010700-  
BALTIMORE METRO  
 
CITY SKY/WX TMP DP RH WIND PRES REMARKS
 
BWI AIRPORT CLOUDY 59 57 93 E10 30.02F  
MD SCIENCE CTR N/A 60 54 80 MISG 30.03F  
MARTIN STATE CLOUDY 59 57 94 E5 30.04F  
ANNAPOLIS MOCLDY 62 61 96 E3 30.01F  
FORT MEADE* PTCLDY 57 54 88 E3 30.04F  
 

 
 
MDZ012-015-019>023-010700-  
MARYLAND EASTERN SHORE  
 
CITY SKY/WX TMP DP RH WIND PRES REMARKS
 
OCEAN CITY CLOUDY 73 67 81 SW14 30.05F  
SALISBURY CLOUDY 70 67 90 CALM 30.03F  
BAY BRIDGE AP* CLOUDY 59 57 94 E3 30.02F FOG  
CAMBRIDGE* PTCLDY 64 61 88 E3 30.02F  
EASTON* CLEAR 60 58 91 E5 30.06F FOG  
 

 
 
MDZ017>025-010700-  
SOUTHERN MARYLAND  
 
CITY SKY/WX TMP DP RH WIND PRES REMARKS
 
PATUXENT RIVER MOCLDY 76 69 79 S13 30.01F  
ST INIGOES PTCLDY 76 66 71 S9 30.01F  
LEONARDTOWN* PTCLDY 73 64 73 S7 30.03F  
 

 
 
MDZ003>005-010700-  
NORTH CENTRAL MARYLAND  
 
CITY SKY/WX TMP DP RH WIND PRES REMARKS
 
FREDERICK* CLEAR 63 63 100 N3 30.02F FOG  
HAGERSTOWN APT CLEAR 63 60 90 NW6 29.96F  
WESTMINSTER* NOT AVBL  
 

 
 
MDZ501>502-010700-  
WESTERN MARYLAND  
 
CITY SKY/WX TMP DP RH WIND PRES REMARKS
 
OAKLAND* CLOUDY 63 52 67 S9 29.99F  
CUMBERLAND* CLEAR 66 66 100 CALM 29.96F  
 

 
 
VAZ025>031-010700-  
SHENANDOAH VALLEY  
 
CITY SKY/WX TMP DP RH WIND PRES REMARKS
 
WINCHESTER* CLEAR 63 59 88 CALM 29.96F  
FRONT ROYAL* CLEAR 70 63 78 S5 29.96S  
LURAY* PTCLDY 72 63 73 SW9 29.98F  
NEW MARKET* PTCLDY 68 61 78 SW3 29.97F  
STAUNTON* CLEAR 67 61 83 SW3 30.02F  
WAYNESBORO* PTCLDY 68 64 87 S5 30.02F  
 

 
 
WVZ021-048>050-054>055-010700-  
EASTERN WEST VIRGINIA PANHANDLE  
 
CITY SKY/WX TMP DP RH WIND PRES REMARKS
 
MARTINSBURG CLEAR 64 61 90 W3 29.94F  
PETERSBURG* CLOUDY 72 62 71 E5 29.94F  
 

 
 
VAZ036>039-050-010700-  
CENTRAL FOOTHILLS  
 
CITY SKY/WX TMP DP RH WIND PRES REMARKS
 
CHARLOTTESVILL CLEAR 72 65 78 S13 29.99F  
CULPEPER* CLEAR 74 65 74 S6 29.99F  
ORANGE* CLEAR 70 63 78 S9 29.99F  
GORDONSVILLE* CLEAR 71 65 81 SW8 30.00F  
WARRENTON* CLEAR 74 61 64 S6 29.98F  
 

 
 
VAZ055>057-010700-  
NORTH AND CENTRAL PIEDMONT  
 
CITY SKY/WX TMP DP RH WIND PRES REMARKS
 
FREDERICKSBRG* CLEAR 73 66 80 S3 29.99F  
STAFFORD* CLEAR 72 66 83 S6 30.03F  
 

 
 
NCZ024-NYZ072-PAZ021-071-VAZ022-071-010700-  
OTHER REGIONAL OBSERVATIONS  
 
CITY SKY/WX TMP DP RH WIND PRES REMARKS
 
NEW YORK CITY CLOUDY 50 48 93 VRB5 30.14F  
PHILADELPHIA CLOUDY 52 50 93 NE7 30.07F  
PITTSBURGH MOCLDY 75 58 55 S7 29.84F  
ROANOKE MOCLDY 72 66 81 SE12 30.02F  
RICHMOND CLEAR 72 65 78 S14 30.03F  
RALEIGH MOCLDY 70 66 87 S9 30.09F  
 

 
 
ANZ530>537-010700-  
MARINE OBSERVATIONS  
 
STATION/POSITION TIME TEMP WIND PRES
 
AIR SEA DIR/SP/G  
(UTC) (F) (DEG/KT/KT) (MB)  
THOMAS PT LIGHT 0600 61 63 70/ 6/ 7 N/A  
BALT KEY BRIDGE 0542 80/ 10/ 12 1016.8F  
COVE POINT 0542 200/ 7/ 10 1016.9F  
LEWISETTA 0542 74 220/ 11/ 14 1016.5F  
SOLOMONS ISLAND 0536 64 210/ 12/ 15 N/A  
PINEY POINT 0542 230/ 13/ 14 N/A  
 

 
 
 
 
CLICK HERE TO GO TO PREVIOUS BULLETINS.

The Nexlab VA Page
The Nexlab MD Page
The Nexlab WV Page Main Text Page